contact:dominique.lefevre@mio.osupytheas.fr, maurice.libes@osupytheas.fr, didier.mallarino@osupytheas.fr
Project:EMSO http://www.emso-fr.org/EMSO-France
Depth: 2436.0 m
Title:EMSO Ligure Ouest : Data MII capteur MICROCAT
DateTime_Computer,Latitude,Longitude,Temperature,Conductivity,Pressure,DateTime_Instrument
DateTime_Computer,Latitude,Longitude,degC,S m-1,dbar,DateTime_Instrument
2022-04-01T00:00:43Z,42.805,6.029,13.3024,4.60070,2470.18,2022-4-01T02:02:20Z
2022-04-01T00:03:46Z,42.805,6.029,13.3036,4.60074,2470.156,2022-4-01T02:05:23Z
2022-04-01T00:06:49Z,42.805,6.029,13.3029,4.60075,2470.203,2022-4-01T02:08:27Z
2022-04-01T00:09:52Z,42.805,6.029,13.3029,4.60075,2470.18,2022-4-01T02:11:30Z
2022-04-01T00:12:55Z,42.805,6.029,13.3029,4.60072,2470.156,2022-4-01T02:14:33Z
2022-04-01T00:15:59Z,42.805,6.029,13.3033,4.60074,2470.171,2022-4-01T02:17:36Z
2022-04-01T00:19:02Z,42.805,6.029,13.3025,4.60073,2470.171,2022-4-01T02:20:39Z
2022-04-01T00:22:05Z,42.805,6.029,13.3031,4.60073,2470.171,2022-4-01T02:23:42Z
2022-04-01T00:25:08Z,42.805,6.029,13.3029,4.60072,2470.156,2022-4-01T02:26:45Z
2022-04-01T00:28:11Z,42.805,6.029,13.3026,4.60074,2470.171,2022-4-01T02:29:48Z
2022-04-01T00:31:14Z,42.805,6.029,13.3034,4.60074,2470.171,2022-4-01T02:32:51Z
2022-04-01T00:34:17Z,42.805,6.029,13.3031,4.60081,2470.171,2022-4-01T02:35:55Z
2022-04-01T00:37:20Z,42.805,6.029,13.3032,4.60069,2470.156,2022-4-01T02:38:58Z
2022-04-01T00:40:24Z,42.805,6.029,13.3027,4.60070,2470.156,2022-4-01T02:42:01Z
2022-04-01T00:43:27Z,42.805,6.029,13.3025,4.60068,2470.171,2022-4-01T02:45:04Z
2022-04-01T00:46:30Z,42.805,6.029,13.3031,4.60074,2470.133,2022-4-01T02:48:07Z
2022-04-01T00:49:33Z,42.805,6.029,13.3026,4.60072,2470.171,2022-4-01T02:51:10Z
2022-04-01T00:52:36Z,42.805,6.029,13.3033,4.60074,2470.156,2022-4-01T02:54:13Z
2022-04-01T00:55:39Z,42.805,6.029,13.3026,4.60079,2470.171,2022-4-01T02:57:16Z
2022-04-01T00:58:42Z,42.805,6.029,13.3031,4.60089,2470.171,2022-4-01T03:00:20Z
2022-04-01T01:01:45Z,42.805,6.029,13.3036,4.60079,2470.156,2022-4-01T03:03:23Z
2022-04-01T01:04:48Z,42.805,6.029,13.3036,4.60089,2470.147,2022-4-01T03:06:26Z
2022-04-01T01:07:52Z,42.805,6.029,13.3029,4.60085,2470.156,2022-4-01T03:09:29Z
2022-04-01T01:10:55Z,42.805,6.029,13.3032,4.60074,2470.18,2022-4-01T03:12:32Z
2022-04-01T01:13:58Z,42.805,6.029,13.3034,4.60093,2470.156,2022-4-01T03:15:35Z
2022-04-01T01:17:01Z,42.805,6.029,13.3034,4.60077,2470.147,2022-4-01T03:18:38Z
2022-04-01T01:20:04Z,42.805,6.029,13.3032,4.60072,2470.133,2022-4-01T03:21:41Z
2022-04-01T01:23:07Z,42.805,6.029,13.3031,4.60075,2470.171,2022-4-01T03:24:44Z
2022-04-01T01:26:10Z,42.805,6.029,13.3026,4.60069,2470.133,2022-4-01T03:27:48Z
2022-04-01T01:29:13Z,42.805,6.029,13.3026,4.60067,2470.133,2022-4-01T03:30:51Z
2022-04-01T01:32:17Z,42.805,6.029,13.3030,4.60077,2470.133,2022-4-01T03:33:54Z
2022-04-01T01:35:20Z,42.805,6.029,13.3031,4.60072,2470.194,2022-4-01T03:36:57Z
2022-04-01T01:38:23Z,42.805,6.029,13.3026,4.60071,2470.133,2022-4-01T03:40:00Z
2022-04-01T01:41:26Z,42.805,6.029,13.3031,4.60069,2470.171,2022-4-01T03:43:03Z
2022-04-01T01:44:29Z,42.805,6.029,13.3028,4.60079,2470.18,2022-4-01T03:46:06Z
2022-04-01T01:47:32Z,42.805,6.029,13.3031,4.60086,2470.147,2022-4-01T03:49:09Z
2022-04-01T01:50:35Z,42.805,6.029,13.3034,4.60082,2470.156,2022-4-01T03:52:12Z
2022-04-01T01:53:38Z,42.805,6.029,13.3034,4.60086,2470.156,2022-4-01T03:55:16Z
2022-04-01T01:56:41Z,42.805,6.029,13.3025,4.60074,2470.171,2022-4-01T03:58:19Z
2022-04-01T01:59:45Z,42.805,6.029,13.3030,4.60069,2470.133,2022-4-01T04:01:22Z
2022-04-01T02:02:48Z,42.805,6.029,13.3031,4.60090,2470.194,2022-4-01T04:04:25Z
2022-04-01T02:05:51Z,42.805,6.029,13.3031,4.60092,2470.133,2022-4-01T04:07:28Z
2022-04-01T02:08:54Z,42.805,6.029,13.3034,4.60091,2470.156,2022-4-01T04:10:31Z
2022-04-01T02:11:57Z,42.805,6.029,13.3025,4.60068,2470.171,2022-4-01T04:13:34Z
2022-04-01T02:15:00Z,42.805,6.029,13.3038,4.60088,2470.166,2022-4-01T04:16:37Z
2022-04-01T02:18:03Z,42.805,6.029,13.3039,4.60072,2470.156,2022-4-01T04:19:41Z
2022-04-01T02:21:06Z,42.805,6.029,13.3026,4.60089,2470.194,2022-4-01T04:22:44Z
2022-04-01T02:24:09Z,42.805,6.029,13.3029,4.60074,2470.184,2022-4-01T04:25:47Z
2022-04-01T02:27:13Z,42.805,6.029,13.3048,4.60089,2470.156,2022-4-01T04:28:50Z
2022-04-01T02:30:16Z,42.805,6.029,13.3034,4.60087,2470.18,2022-4-01T04:31:53Z
2022-04-01T02:33:19Z,42.805,6.029,13.3035,4.60098,2470.18,2022-4-01T04:34:56Z
2022-04-01T02:36:22Z,42.805,6.029,13.3038,4.60084,2470.171,2022-4-01T04:37:59Z
2022-04-01T02:39:25Z,42.805,6.029,13.3040,4.60090,2470.156,2022-4-01T04:41:02Z
2022-04-01T02:42:28Z,42.805,6.029,13.3048,4.60085,2470.171,2022-4-01T04:44:05Z
2022-04-01T02:45:31Z,42.805,6.029,13.3021,4.60073,2470.217,2022-4-01T04:47:09Z
2022-04-01T02:48:34Z,42.805,6.029,13.3034,4.60086,2470.18,2022-4-01T04:50:12Z
2022-04-01T02:51:38Z,42.805,6.029,13.3028,4.60075,2470.18,2022-4-01T04:53:15Z
2022-04-01T02:54:41Z,42.805,6.029,13.3034,4.60090,2470.18,2022-4-01T04:56:18Z
2022-04-01T02:57:44Z,42.805,6.029,13.3029,4.60092,2470.203,2022-4-01T04:59:21Z
2022-04-01T03:00:47Z,42.805,6.029,13.3034,4.60089,2470.18,2022-4-01T05:02:24Z
2022-04-01T03:03:50Z,42.805,6.029,13.3025,4.60083,2470.18,2022-4-01T05:05:27Z
2022-04-01T03:06:53Z,42.805,6.029,13.3031,4.60076,2470.217,2022-4-01T05:08:30Z
2022-04-01T03:09:56Z,42.805,6.029,13.3033,4.60081,2470.156,2022-4-01T05:11:33Z
2022-04-01T03:12:59Z,42.805,6.029,13.3034,4.60093,2470.194,2022-4-01T05:14:37Z
2022-04-01T03:16:02Z,42.805,6.029,13.3033,4.60081,2470.217,2022-4-01T05:17:40Z
2022-04-01T03:19:06Z,42.805,6.029,13.3036,4.60094,2470.264,2022-4-01T05:20:43Z
2022-04-01T03:22:09Z,42.805,6.029,13.3024,4.60087,2470.18,2022-4-01T05:23:46Z
2022-04-01T03:25:12Z,42.805,6.029,13.3030,4.60081,2470.217,2022-4-01T05:26:49Z
2022-04-01T03:28:15Z,42.805,6.029,13.3029,4.60094,2470.203,2022-4-01T05:29:52Z
2022-04-01T03:31:18Z,42.805,6.029,13.3039,4.60090,2470.227,2022-4-01T05:32:55Z
2022-04-01T03:34:21Z,42.805,6.029,13.3035,4.60066,2470.24,2022-4-01T05:35:58Z
2022-04-01T03:37:24Z,42.805,6.029,13.3027,4.60067,2470.217,2022-4-01T05:39:02Z
2022-04-01T03:40:27Z,42.805,6.029,13.3032,4.60079,2470.203,2022-4-01T05:42:05Z
2022-04-01T03:43:31Z,42.805,6.029,13.3028,4.60068,2470.227,2022-4-01T05:45:08Z
2022-04-01T03:46:34Z,42.805,6.029,13.3024,4.60073,2470.203,2022-4-01T05:48:11Z
2022-04-01T03:49:37Z,42.805,6.029,13.3024,4.60078,2470.25,2022-4-01T05:51:14Z
2022-04-01T03:52:40Z,42.805,6.029,13.3029,4.60090,2470.203,2022-4-01T05:54:17Z
2022-04-01T03:55:43Z,42.805,6.029,13.3034,4.60085,2470.227,2022-4-01T05:57:20Z
2022-04-01T03:58:46Z,42.805,6.029,13.3026,4.60094,2470.24,2022-4-01T06:00:23Z
2022-04-01T04:01:49Z,42.805,6.029,13.3030,4.60079,2470.203,2022-4-01T06:03:26Z
2022-04-01T04:04:52Z,42.805,6.029,13.3029,4.60081,2470.227,2022-4-01T06:06:30Z
2022-04-01T04:07:55Z,42.805,6.029,13.3021,4.60066,2470.24,2022-4-01T06:09:33Z
2022-04-01T04:10:59Z,42.805,6.029,13.3034,4.60083,2470.227,2022-4-01T06:12:36Z
2022-04-01T04:14:02Z,42.805,6.029,13.3018,4.60077,2470.25,2022-4-01T06:15:39Z
2022-04-01T04:17:05Z,42.805,6.029,13.3024,4.60074,2470.25,2022-4-01T06:18:42Z
2022-04-01T04:20:08Z,42.805,6.029,13.3019,4.60061,2470.264,2022-4-01T06:21:45Z
2022-04-01T04:23:11Z,42.805,6.029,13.3021,4.60060,2470.25,2022-4-01T06:24:48Z
2022-04-01T04:26:14Z,42.805,6.029,13.3016,4.60057,2470.273,2022-4-01T06:27:51Z
2022-04-01T04:29:17Z,42.805,6.029,13.3025,4.60067,2470.25,2022-4-01T06:30:55Z
2022-04-01T04:32:20Z,42.805,6.029,13.3030,4.60074,2470.31,2022-4-01T06:33:58Z
2022-04-01T04:35:24Z,42.805,6.029,13.3024,4.60081,2470.287,2022-4-01T06:37:01Z
2022-04-01T04:38:27Z,42.805,6.029,13.3024,4.60064,2470.25,2022-4-01T06:40:04Z
2022-04-01T04:41:30Z,42.805,6.029,13.3015,4.60061,2470.297,2022-4-01T06:43:07Z
2022-04-01T04:44:33Z,42.805,6.029,13.3027,4.60082,2470.287,2022-4-01T06:46:10Z
2022-04-01T04:47:36Z,42.805,6.029,13.3023,4.60062,2470.264,2022-4-01T06:49:13Z
2022-04-01T04:50:39Z,42.805,6.029,13.3018,4.60062,2470.273,2022-4-01T06:52:16Z
2022-04-01T04:53:42Z,42.805,6.029,13.3029,4.60072,2470.31,2022-4-01T06:55:19Z
2022-04-01T04:56:45Z,42.805,6.029,13.3020,4.60061,2470.297,2022-4-01T06:58:23Z
2022-04-01T04:59:48Z,42.805,6.029,13.3014,4.60058,2470.297,2022-4-01T07:01:26Z
2022-04-01T05:02:52Z,42.805,6.029,13.3017,4.60059,2470.31,2022-4-01T07:04:29Z
2022-04-01T05:05:55Z,42.805,6.029,13.3019,4.60058,2470.31,2022-4-01T07:07:32Z
2022-04-01T05:08:58Z,42.805,6.029,13.3015,4.60059,2470.273,2022-4-01T07:10:35Z
2022-04-01T05:12:01Z,42.805,6.029,13.3021,4.60058,2470.31,2022-4-01T07:13:38Z
2022-04-01T05:15:04Z,42.805,6.029,13.3014,4.60056,2470.32,2022-4-01T07:16:41Z
2022-04-01T05:18:07Z,42.805,6.029,13.3014,4.60054,2470.32,2022-4-01T07:19:44Z
2022-04-01T05:21:10Z,42.805,6.029,13.3014,4.60057,2470.297,2022-4-01T07:22:47Z
2022-04-01T05:24:13Z,42.805,6.029,13.3016,4.60064,2470.32,2022-4-01T07:25:51Z
2022-04-01T05:27:16Z,42.805,6.029,13.3024,4.60069,2470.32,2022-4-01T07:28:54Z
2022-04-01T05:30:20Z,42.805,6.029,13.3022,4.60072,2470.343,2022-4-01T07:31:57Z
2022-04-01T05:33:23Z,42.805,6.029,13.3019,4.60068,2470.343,2022-4-01T07:35:00Z
2022-04-01T05:36:26Z,42.805,6.029,13.3018,4.60076,2470.334,2022-4-01T07:38:03Z
2022-04-01T05:39:29Z,42.805,6.029,13.3025,4.60072,2470.38,2022-4-01T07:41:06Z
2022-04-01T05:42:32Z,42.805,6.029,13.3020,4.60065,2470.343,2022-4-01T07:44:09Z
2022-04-01T05:45:35Z,42.805,6.029,13.3019,4.60060,2470.343,2022-4-01T07:47:12Z
2022-04-01T05:48:38Z,42.805,6.029,13.3021,4.60070,2470.343,2022-4-01T07:50:16Z
2022-04-01T05:51:41Z,42.805,6.029,13.3015,4.60057,2470.366,2022-4-01T07:53:19Z
2022-04-01T05:54:44Z,42.805,6.029,13.3021,4.60063,2470.343,2022-4-01T07:56:22Z
2022-04-01T05:57:48Z,42.805,6.029,13.3015,4.60056,2470.343,2022-4-01T07:59:25Z
2022-04-01T06:00:51Z,42.805,6.029,13.3020,4.60067,2470.38,2022-4-01T08:02:28Z
2022-04-01T06:03:54Z,42.805,6.029,13.3016,4.60074,2470.366,2022-4-01T08:05:31Z
2022-04-01T06:06:57Z,42.805,6.029,13.3023,4.60077,2470.366,2022-4-01T08:08:34Z
2022-04-01T06:10:00Z,42.805,6.029,13.3016,4.60062,2470.343,2022-4-01T08:11:37Z
2022-04-01T06:13:03Z,42.805,6.029,13.3011,4.60054,2470.38,2022-4-01T08:14:40Z
2022-04-01T06:16:06Z,42.805,6.029,13.3013,4.60057,2470.38,2022-4-01T08:17:44Z
2022-04-01T06:19:09Z,42.805,6.029,13.3012,4.60052,2470.39,2022-4-01T08:20:47Z
2022-04-01T06:22:13Z,42.805,6.029,13.3019,4.60054,2470.366,2022-4-01T08:23:50Z
2022-04-01T06:25:16Z,42.805,6.029,13.3010,4.60072,2470.38,2022-4-01T08:26:53Z
2022-04-01T06:28:19Z,42.805,6.029,13.3015,4.60059,2470.366,2022-4-01T08:29:56Z
2022-04-01T06:31:22Z,42.805,6.029,13.3014,4.60052,2470.39,2022-4-01T08:32:59Z
2022-04-01T06:34:25Z,42.805,6.029,13.3013,4.60051,2470.366,2022-4-01T08:36:02Z
2022-04-01T06:37:28Z,42.805,6.029,13.3014,4.60056,2470.404,2022-4-01T08:39:05Z
2022-04-01T06:40:31Z,42.805,6.029,13.3013,4.60072,2470.413,2022-4-01T08:42:08Z
2022-04-01T06:43:34Z,42.805,6.029,13.3014,4.60053,2470.404,2022-4-01T08:45:12Z
2022-04-01T06:46:37Z,42.805,6.029,13.3014,4.60070,2470.47,2022-4-01T08:48:15Z
2022-04-01T06:49:41Z,42.805,6.029,13.3016,4.60056,2470.366,2022-4-01T08:51:18Z
2022-04-01T06:52:44Z,42.805,6.029,13.3014,4.60052,2470.39,2022-4-01T08:54:21Z
2022-04-01T06:55:47Z,42.805,6.029,13.3011,4.60062,2470.413,2022-4-01T08:57:24Z
2022-04-01T06:58:50Z,42.805,6.029,13.3014,4.60054,2470.427,2022-4-01T09:00:27Z
2022-04-01T07:01:53Z,42.805,6.029,13.3014,4.60055,2470.39,2022-4-01T09:03:30Z
2022-04-01T07:04:56Z,42.805,6.029,13.3014,4.60054,2470.39,2022-4-01T09:06:33Z
2022-04-01T07:07:59Z,42.805,6.029,13.3013,4.60061,2470.45,2022-4-01T09:09:37Z
2022-04-01T07:11:02Z,42.805,6.029,13.3013,4.60054,2470.39,2022-4-01T09:12:40Z
2022-04-01T07:14:05Z,42.805,6.029,13.3009,4.60054,2470.427,2022-4-01T09:15:43Z
2022-04-01T07:17:09Z,42.805,6.029,13.3014,4.60050,2470.357,2022-4-01T09:18:46Z
2022-04-01T07:20:12Z,42.805,6.029,13.3012,4.60052,2470.39,2022-4-01T09:21:49Z
2022-04-01T07:23:15Z,42.805,6.029,13.3013,4.60051,2470.413,2022-4-01T09:24:52Z
2022-04-01T07:26:18Z,42.805,6.029,13.3013,4.60054,2470.427,2022-4-01T09:27:55Z
2022-04-01T07:29:21Z,42.805,6.029,13.3015,4.60057,2470.404,2022-4-01T09:30:58Z
2022-04-01T07:32:24Z,42.805,6.029,13.3011,4.60062,2470.39,2022-4-01T09:34:01Z
2022-04-01T07:35:27Z,42.805,6.029,13.3013,4.60064,2470.404,2022-4-01T09:37:05Z
2022-04-01T07:38:30Z,42.805,6.029,13.3015,4.60063,2470.427,2022-4-01T09:40:08Z
2022-04-01T07:41:34Z,42.805,6.029,13.3014,4.60051,2470.366,2022-4-01T09:43:11Z
2022-04-01T07:44:37Z,42.805,6.029,13.3013,4.60052,2470.39,2022-4-01T09:46:14Z
2022-04-01T07:47:40Z,42.805,6.029,13.3015,4.60064,2470.38,2022-4-01T09:49:17Z
2022-04-01T07:50:43Z,42.805,6.029,13.3011,4.60050,2470.39,2022-4-01T09:52:20Z
2022-04-01T07:53:46Z,42.805,6.029,13.3014,4.60069,2470.357,2022-4-01T09:55:23Z
2022-04-01T07:56:49Z,42.805,6.029,13.3014,4.60056,2470.39,2022-4-01T09:58:26Z
2022-04-01T07:59:52Z,42.805,6.029,13.3015,4.60056,2470.38,2022-4-01T10:01:30Z
2022-04-01T08:02:55Z,42.805,6.029,13.3011,4.60054,2470.357,2022-4-01T10:04:33Z
2022-04-01T08:05:58Z,42.805,6.029,13.3011,4.60054,2470.366,2022-4-01T10:07:36Z
2022-04-01T08:09:02Z,42.805,6.029,13.3016,4.60054,2470.366,2022-4-01T10:10:39Z
2022-04-01T08:12:05Z,42.805,6.029,13.3015,4.60061,2470.394,2022-4-01T10:13:42Z
2022-04-01T08:15:08Z,42.805,6.029,13.3018,4.60055,2470.366,2022-4-01T10:16:45Z
2022-04-01T08:18:11Z,42.805,6.029,13.3015,4.60067,2470.38,2022-4-01T10:19:48Z
2022-04-01T08:21:14Z,42.805,6.029,13.3016,4.60073,2470.39,2022-4-01T10:22:51Z
2022-04-01T08:24:17Z,42.805,6.029,13.3016,4.60063,2470.357,2022-4-01T10:25:54Z
2022-04-01T08:27:20Z,42.805,6.029,13.3021,4.60064,2470.39,2022-4-01T10:28:58Z
2022-04-01T08:30:23Z,42.805,6.029,13.3016,4.60052,2470.39,2022-4-01T10:32:01Z
2022-04-01T08:33:27Z,42.805,6.029,13.3014,4.60055,2470.38,2022-4-01T10:35:04Z
2022-04-01T08:36:30Z,42.805,6.029,13.3021,4.60069,2470.38,2022-4-01T10:38:07Z
2022-04-01T08:39:33Z,42.805,6.029,13.3011,4.60055,2470.366,2022-4-01T10:41:10Z
2022-04-01T08:42:36Z,42.805,6.029,13.3013,4.60061,2470.357,2022-4-01T10:44:13Z
2022-04-01T08:45:39Z,42.805,6.029,13.3020,4.60061,2470.357,2022-4-01T10:47:16Z
2022-04-01T08:48:42Z,42.805,6.029,13.3019,4.60057,2470.357,2022-4-01T10:50:19Z
2022-04-01T08:51:45Z,42.805,6.029,13.3018,4.60060,2470.343,2022-4-01T10:53:23Z
2022-04-01T08:54:48Z,42.805,6.029,13.3011,4.60052,2470.366,2022-4-01T10:56:26Z
2022-04-01T08:57:52Z,42.805,6.029,13.3018,4.60053,2470.343,2022-4-01T10:59:29Z
2022-04-01T09:00:55Z,42.805,6.029,13.3015,4.60054,2470.357,2022-4-01T11:02:32Z
2022-04-01T09:03:58Z,42.805,6.029,13.3015,4.60056,2470.343,2022-4-01T11:05:35Z
2022-04-01T09:07:01Z,42.805,6.029,13.3016,4.60055,2470.357,2022-4-01T11:08:38Z
2022-04-01T09:10:04Z,42.805,6.029,13.3019,4.60067,2470.334,2022-4-01T11:11:41Z
2022-04-01T09:13:07Z,42.805,6.029,13.3017,4.60058,2470.343,2022-4-01T11:14:44Z
2022-04-01T09:16:10Z,42.805,6.029,13.3018,4.60057,2470.32,2022-4-01T11:17:47Z
2022-04-01T09:19:13Z,42.805,6.029,13.3018,4.60068,2470.297,2022-4-01T11:20:51Z
2022-04-01T09:22:16Z,42.805,6.029,13.3019,4.60062,2470.343,2022-4-01T11:23:54Z
2022-04-01T09:25:20Z,42.805,6.029,13.3011,4.60054,2470.32,2022-4-01T11:26:57Z
2022-04-01T09:28:23Z,42.805,6.029,13.3012,4.60055,2470.334,2022-4-01T11:30:00Z
2022-04-01T09:31:26Z,42.805,6.029,13.3023,4.60069,2470.38,2022-4-01T11:33:03Z
2022-04-01T09:34:29Z,42.805,6.029,13.3018,4.60060,2470.334,2022-4-01T11:36:06Z
2022-04-01T09:37:32Z,42.805,6.029,13.3013,4.60057,2470.273,2022-4-01T11:39:09Z
2022-04-01T09:40:35Z,42.805,6.029,13.3014,4.60052,2470.273,2022-4-01T11:42:12Z
2022-04-01T09:43:38Z,42.805,6.029,13.3021,4.60056,2470.287,2022-4-01T11:45:16Z
2022-04-01T09:46:41Z,42.805,6.029,13.3017,4.60055,2470.31,2022-4-01T11:48:19Z
2022-04-01T09:49:45Z,42.805,6.029,13.3017,4.60053,2470.273,2022-4-01T11:51:22Z
2022-04-01T09:52:48Z,42.805,6.029,13.3019,4.60060,2470.287,2022-4-01T11:54:25Z
2022-04-01T09:55:51Z,42.805,6.029,13.3012,4.60054,2470.297,2022-4-01T11:57:28Z
2022-04-01T09:58:54Z,42.805,6.029,13.3013,4.60052,2470.273,2022-4-01T12:00:31Z
2022-04-01T10:01:57Z,42.805,6.029,13.3014,4.60052,2470.264,2022-4-01T12:03:34Z
2022-04-01T10:05:00Z,42.805,6.029,13.3015,4.60052,2470.264,2022-4-01T12:06:37Z
2022-04-01T10:08:03Z,42.805,6.029,13.3015,4.60050,2470.25,2022-4-01T12:09:41Z
2022-04-01T10:11:06Z,42.805,6.029,13.3018,4.60059,2470.25,2022-4-01T12:12:44Z
2022-04-01T10:14:10Z,42.805,6.029,13.3014,4.60049,2470.25,2022-4-01T12:15:47Z
2022-04-01T10:17:13Z,42.805,6.029,13.3016,4.60057,2470.273,2022-4-01T12:18:50Z
2022-04-01T10:20:16Z,42.805,6.029,13.3018,4.60050,2470.287,2022-4-01T12:21:53Z
2022-04-01T10:23:19Z,42.805,6.029,13.3011,4.60049,2470.273,2022-4-01T12:24:56Z
2022-04-01T10:26:22Z,42.805,6.029,13.3011,4.60050,2470.287,2022-4-01T12:27:59Z
2022-04-01T10:29:25Z,42.805,6.029,13.3013,4.60057,2470.287,2022-4-01T12:31:02Z
2022-04-01T10:32:28Z,42.805,6.029,13.3014,4.60052,2470.273,2022-4-01T12:34:06Z
2022-04-01T10:35:31Z,42.805,6.029,13.3009,4.60053,2470.25,2022-4-01T12:37:09Z
2022-04-01T10:38:35Z,42.805,6.029,13.3012,4.60054,2470.25,2022-4-01T12:40:12Z
2022-04-01T10:41:38Z,42.805,6.029,13.3013,4.60061,2470.227,2022-4-01T12:43:15Z
2022-04-01T10:44:41Z,42.805,6.029,13.3011,4.60050,2470.227,2022-4-01T12:46:18Z
2022-04-01T10:47:44Z,42.805,6.029,13.3016,4.60052,2470.25,2022-4-01T12:49:21Z
2022-04-01T10:50:47Z,42.805,6.029,13.3010,4.60053,2470.227,2022-4-01T12:52:24Z
2022-04-01T10:53:50Z,42.805,6.029,13.3015,4.60052,2470.25,2022-4-01T12:55:27Z
2022-04-01T10:56:53Z,42.805,6.029,13.3009,4.60050,2470.25,2022-4-01T12:58:31Z
2022-04-01T10:59:56Z,42.805,6.029,13.3013,4.60052,2470.227,2022-4-01T13:01:34Z
2022-04-01T11:02:59Z,42.805,6.029,13.3013,4.60049,2470.24,2022-4-01T13:04:37Z
2022-04-01T11:06:03Z,42.805,6.029,13.3014,4.60050,2470.203,2022-4-01T13:07:40Z
2022-04-01T11:09:06Z,42.805,6.029,13.3012,4.60052,2470.203,2022-4-01T13:10:43Z
2022-04-01T11:12:09Z,42.805,6.029,13.3012,4.60051,2470.203,2022-4-01T13:13:46Z
2022-04-01T11:15:12Z,42.805,6.029,13.3013,4.60058,2470.217,2022-4-01T13:16:49Z
2022-04-01T11:18:15Z,42.805,6.029,13.3011,4.60049,2470.203,2022-4-01T13:19:52Z
2022-04-01T11:21:18Z,42.805,6.029,13.3014,4.60050,2470.18,2022-4-01T13:22:56Z
2022-04-01T11:24:21Z,42.805,6.029,13.3013,4.60052,2470.203,2022-4-01T13:25:59Z
2022-04-01T11:27:24Z,42.805,6.029,13.3013,4.60049,2470.227,2022-4-01T13:29:02Z
2022-04-01T11:30:28Z,42.805,6.029,13.3013,4.60063,2470.18,2022-4-01T13:32:05Z
2022-04-01T11:33:31Z,42.805,6.029,13.3018,4.60051,2470.194,2022-4-01T13:35:08Z
2022-04-01T11:36:34Z,42.805,6.029,13.3015,4.60058,2470.18,2022-4-01T13:38:11Z
2022-04-01T11:39:37Z,42.805,6.029,13.3012,4.60052,2470.194,2022-4-01T13:41:14Z
2022-04-01T11:42:40Z,42.805,6.029,13.3014,4.60050,2470.171,2022-4-01T13:44:17Z
2022-04-01T11:45:43Z,42.805,6.029,13.3009,4.60051,2470.171,2022-4-01T13:47:20Z
2022-04-01T11:48:46Z,42.805,6.029,13.3011,4.60050,2470.156,2022-4-01T13:50:24Z
2022-04-01T11:51:49Z,42.805,6.029,13.3011,4.60057,2470.171,2022-4-01T13:53:27Z
2022-04-01T11:54:53Z,42.805,6.029,13.3013,4.60049,2470.171,2022-4-01T13:56:30Z
2022-04-01T11:57:56Z,42.805,6.029,13.3015,4.60060,2470.18,2022-4-01T13:59:33Z
2022-04-01T12:00:59Z,42.805,6.029,13.3011,4.60052,2470.147,2022-4-01T14:02:36Z
2022-04-01T12:04:02Z,42.805,6.029,13.3013,4.60058,2470.133,2022-4-01T14:05:39Z
2022-04-01T12:07:05Z,42.805,6.029,13.3008,4.60047,2470.133,2022-4-01T14:08:42Z
2022-04-01T12:10:08Z,42.805,6.029,13.3009,4.60057,2470.147,2022-4-01T14:11:45Z
2022-04-01T12:13:11Z,42.805,6.029,13.3014,4.60050,2470.133,2022-4-01T14:14:49Z
2022-04-01T12:16:14Z,42.805,6.029,13.3009,4.60055,2470.147,2022-4-01T14:17:52Z
2022-04-01T12:19:18Z,42.805,6.029,13.3012,4.60057,2470.133,2022-4-01T14:20:55Z
2022-04-01T12:22:21Z,42.805,6.029,13.3013,4.60051,2470.11,2022-4-01T14:23:58Z
2022-04-01T12:25:24Z,42.805,6.029,13.3012,4.60050,2470.11,2022-4-01T14:27:01Z
2022-04-01T12:28:27Z,42.805,6.029,13.3011,4.60046,2470.124,2022-4-01T14:30:04Z
2022-04-01T12:31:30Z,42.805,6.029,13.3011,4.60048,2470.11,2022-4-01T14:33:07Z
2022-04-01T12:34:33Z,42.805,6.029,13.3011,4.60049,2470.11,2022-4-01T14:36:10Z
2022-04-01T12:37:36Z,42.805,6.029,13.3016,4.60063,2470.124,2022-4-01T14:39:14Z
2022-04-01T12:40:39Z,42.805,6.029,13.3009,4.60053,2470.11,2022-4-01T14:42:17Z
2022-04-01T12:43:43Z,42.805,6.029,13.3009,4.60052,2470.1,2022-4-01T14:45:20Z
2022-04-01T12:46:46Z,42.805,6.029,13.3010,4.60047,2470.087,2022-4-01T14:48:23Z
2022-04-01T12:49:49Z,42.805,6.029,13.3019,4.60053,2470.124,2022-4-01T14:51:26Z
2022-04-01T12:52:52Z,42.805,6.029,13.3014,4.60047,2470.124,2022-4-01T14:54:29Z
2022-04-01T12:55:55Z,42.805,6.029,13.3008,4.60049,2470.087,2022-4-01T14:57:32Z
2022-04-01T12:58:58Z,42.805,6.029,13.3022,4.60053,2470.1,2022-4-01T15:00:35Z
2022-04-01T13:02:01Z,42.805,6.029,13.3010,4.60049,2470.11,2022-4-01T15:03:38Z
2022-04-01T13:05:04Z,42.805,6.029,13.3010,4.60050,2470.124,2022-4-01T15:06:42Z
2022-04-01T13:08:07Z,42.805,6.029,13.3008,4.60047,2470.11,2022-4-01T15:09:45Z
2022-04-01T13:11:11Z,42.805,6.029,13.3007,4.60044,2470.11,2022-4-01T15:12:48Z
2022-04-01T13:14:14Z,42.805,6.029,13.3009,4.60046,2470.11,2022-4-01T15:15:51Z
2022-04-01T13:17:17Z,42.805,6.029,13.3006,4.60049,2470.124,2022-4-01T15:18:54Z
2022-04-01T13:20:20Z,42.805,6.029,13.3008,4.60049,2470.133,2022-4-01T15:21:57Z
2022-04-01T13:23:23Z,42.805,6.029,13.3009,4.60058,2470.087,2022-4-01T15:25:00Z
2022-04-01T13:26:26Z,42.805,6.029,13.3007,4.60044,2470.124,2022-4-01T15:28:03Z
2022-04-01T13:29:29Z,42.805,6.029,13.3007,4.60045,2470.077,2022-4-01T15:31:07Z
2022-04-01T13:32:32Z,42.805,6.029,13.3013,4.60046,2470.087,2022-4-01T15:34:10Z
2022-04-01T13:35:36Z,42.805,6.029,13.3006,4.60047,2470.087,2022-4-01T15:37:13Z
2022-04-01T13:38:39Z,42.805,6.029,13.3007,4.60044,2470.1,2022-4-01T15:40:16Z
2022-04-01T13:41:42Z,42.805,6.029,13.3010,4.60045,2470.087,2022-4-01T15:43:19Z
2022-04-01T13:44:45Z,42.805,6.029,13.3008,4.60046,2470.1,2022-4-01T15:46:22Z
2022-04-01T13:47:48Z,42.805,6.029,13.3009,4.60046,2470.063,2022-4-01T15:49:25Z
2022-04-01T13:50:51Z,42.805,6.029,13.3007,4.60044,2470.063,2022-4-01T15:52:28Z
2022-04-01T13:53:54Z,42.805,6.029,13.3009,4.60045,2470.063,2022-4-01T15:55:32Z
2022-04-01T13:56:57Z,42.805,6.029,13.3008,4.60045,2470.11,2022-4-01T15:58:35Z
2022-04-01T14:00:01Z,42.805,6.029,13.3009,4.60049,2470.053,2022-4-01T16:01:38Z
2022-04-01T14:03:04Z,42.805,6.029,13.3015,4.60048,2470.077,2022-4-01T16:04:41Z
2022-04-01T14:06:07Z,42.805,6.029,13.3010,4.60054,2470.049,2022-4-01T16:07:44Z
2022-04-01T14:09:10Z,42.805,6.029,13.3010,4.60047,2470.087,2022-4-01T16:10:47Z
2022-04-01T14:12:13Z,42.805,6.029,13.3009,4.60044,2470.049,2022-4-01T16:13:50Z
2022-04-01T14:15:16Z,42.805,6.029,13.3008,4.60045,2470.04,2022-4-01T16:16:53Z
2022-04-01T14:18:19Z,42.805,6.029,13.3009,4.60046,2470.053,2022-4-01T16:19:57Z
2022-04-01T14:21:22Z,42.805,6.029,13.3008,4.60045,2470.053,2022-4-01T16:23:00Z
2022-04-01T14:24:25Z,42.805,6.029,13.3008,4.60047,2470.077,2022-4-01T16:26:03Z
2022-04-01T14:27:29Z,42.805,6.029,13.3013,4.60047,2470.063,2022-4-01T16:29:06Z
2022-04-01T14:30:32Z,42.805,6.029,13.3008,4.60045,2470.063,2022-4-01T16:32:09Z
2022-04-01T14:33:35Z,42.805,6.029,13.3010,4.60046,2470.063,2022-4-01T16:35:12Z
2022-04-01T14:36:38Z,42.805,6.029,13.3009,4.60051,2470.063,2022-4-01T16:38:15Z
2022-04-01T14:39:41Z,42.805,6.029,13.3007,4.60049,2470.077,2022-4-01T16:41:18Z
2022-04-01T14:42:44Z,42.805,6.029,13.3011,4.60049,2470.077,2022-4-01T16:44:21Z
2022-04-01T14:45:47Z,42.805,6.029,13.3014,4.60060,2470.053,2022-4-01T16:47:25Z
2022-04-01T14:48:50Z,42.805,6.029,13.3011,4.60050,2470.063,2022-4-01T16:50:28Z
2022-04-01T14:51:54Z,42.805,6.029,13.3014,4.60054,2470.087,2022-4-01T16:53:31Z
2022-04-01T14:54:57Z,42.805,6.029,13.3012,4.60049,2470.063,2022-4-01T16:56:34Z
2022-04-01T14:58:00Z,42.805,6.029,13.3019,4.60062,2470.077,2022-4-01T16:59:37Z
2022-04-01T15:01:03Z,42.805,6.029,13.3013,4.60053,2470.063,2022-4-01T17:02:40Z
2022-04-01T15:04:06Z,42.805,6.029,13.3011,4.60049,2470.1,2022-4-01T17:05:43Z
2022-04-01T15:07:09Z,42.805,6.029,13.3017,4.60064,2470.063,2022-4-01T17:08:46Z
2022-04-01T15:10:12Z,42.805,6.029,13.3008,4.60045,2470.087,2022-4-01T17:11:50Z
2022-04-01T15:13:15Z,42.805,6.029,13.3006,4.60054,2470.063,2022-4-01T17:14:53Z